Vancouver Int'l Airport, British Columbia

Past 24 Hour Conditions

Date / Time
(PDT)
Conditions Temp
(°C)
Humidity
(%)
Dew Point
(°C)
Wind
(km/h)
Pressure
(kPa)
Visibility
(km)
27 May 2015
00:00 Mostly Cloudy 16 74 12 calm 101.7 32
26 May 2015
23:00 Partly Cloudy 16 71 11 SE 7 101.6 32
22:00 Partly Cloudy 17 67 11 SE 7 101.6 32
21:00 Partly Cloudy 17 71 12 SSW 8 101.6 32
20:00 Mostly Cloudy 18 67 12 SSW 11 101.6 32
19:00 Mainly Sunny 18 70 13 SW 9 101.6 32
18:00 Partly Cloudy 18 70 13 SW 10 101.6 32
17:00 Partly Cloudy 18 71 13 SW 15 101.6 32
16:00 Partly Cloudy 19   68 13 WSW 9 101.7 32
15:00 Partly Cloudy 18 66 12 WSW 9 101.7 32
14:00 Mostly Cloudy 18 70 13 WSW 14 101.8 24
13:00 Mostly Cloudy 17 78 14 SW 13 101.8 24
12:00 Mostly Cloudy 16 78 13 WSW 12 101.8 24
11:00 Mostly Cloudy 16 78 12 W 9 101.8 24
10:00 Mostly Cloudy 15 83 12 WSW 8 101.8 24
9:00 Mostly Cloudy 15 84 12 SW 8 101.8 24
8:00 Mostly Cloudy 14   85 12 WSW 8 101.8 24
7:00 Mostly Cloudy 15 83 12 SSW 5 101.7 24
6:00 Mostly Cloudy 14   84 12 E 5 101.7 24
5:00 Mostly Cloudy 14   83 11 ESE 8 101.7 24
4:00 Mostly Cloudy 14   79 11 ESE 8 101.7 24
3:00 Mostly Cloudy 14   79 11 E 9 101.7 24
2:00 Mostly Cloudy 15 78 11 E 8 101.7 24
1:00 Mostly Cloudy 15 77 11 ESE 9 101.7 24
00:00 Mostly Cloudy 15 81 11 E 11 101.6 24
N/A Not available
↑ Highest temperature
↓ Lowest temperature

If you require additional historical weather information, please visit Climate Data Online.

What we are doing

Date modified: